Printer-friendly version

IAU Minor Planet Center

Minor Planet Center

MPEC 2007-B62 : 2007 BX48

The following Minor Planet Electronic Circular may be linked-to from your own Web pages, but must not otherwise be redistributed electronically.


Read MPEC 2007-B61 Read MPEC 2007-B63


M.P.E.C. 2007-B62                                Issued 2007 Jan. 28, 21:49 UT

     The Minor Planet Electronic Circulars contain information on unusual
         minor planets and routine data on comets.  They are published
   on behalf of Commission 20 of the International Astronomical Union by the
          Minor Planet Center, Smithsonian Astrophysical Observatory,
                          Cambridge, MA 02138, U.S.A.

             Prepared using the Tamkin Foundation Computer Network

                              MPC@CFA.HARVARD.EDU
          URL http://cfa-www.harvard.edu/iau/mpc.html  ISSN 1523-6714

                                   2007 BX48

Observations:
     K07B48X* C2007 01 24.24069 08 10 53.97 +20 34 43.8          21.8 V EB062G96
     K07B48X  C2007 01 24.24733 08 10 53.11 +20 34 42.6          21.8 V EB062G96
     K07B48X  C2007 01 24.25400 08 10 52.21 +20 34 41.4          21.4 V EB062G96
     K07B48X  C2007 01 24.26060 08 10 51.27 +20 34 40.9          21.0 V EB062G96
     K07B48X  C2007 01 24.29838 08 10 46.12 +20 34 31.3          21.1 V EB062G96
     K07B48X  C2007 01 24.30686 08 10 44.94 +20 34 30.5          21.7 V EB062G96
     K07B48X  C2007 01 24.31480 08 10 43.89 +20 34 29.0          21.7 V EB062G96
     K07B48X  C2007 01 24.32276 08 10 42.81 +20 34 27.0          21.1 V EB062G96
     K07B48X  C2007 01 26.36106 08 06 13.64 +20 27 15.7          22.0 V EB062291
     K07B48X  C2007 01 26.36626 08 06 12.91 +20 27 14.2          22.0 V EB062291
     K07B48X  C2007 01 26.37023 08 06 12.37 +20 27 13.0          22.2 V EB062291
     K07B48X  C2007 01 27.20899 08 04 23.64 +20 24 07.4                 EB062291
     K07B48X HC2007 01 27.21320 08 04 23.07 +20 24 05.2                 EB062291
     K07B48X HC2007 01 27.21718 08 04 22.57 +20 24 04.8                 EB062291
     K07B48X  C2007 01 28.24185 08 02 10.36 +20 20 11.7          22.3 V EB062G96
     K07B48X  C2007 01 28.25832 08 02 08.16 +20 20 07.6          22.0 V EB062G96
     K07B48X  C2007 01 28.26659 08 02 07.01 +20 20 06.0          21.5 V EB062G96
     K07B48X  C2007 01 28.27113 08 02 06.48 +20 20 04.5          21.4 V EB062G96
     K07B48X  C2007 01 28.27964 08 02 05.35 +20 20 02.4          20.7 V EB062G96
     K07B48X  C2007 01 28.28819 08 02 04.26 +20 20 01.0          21.0 V EB062G96
     K07B48X  C2007 01 28.29676 08 02 03.09 +20 19 58.9          21.7 V EB062G96

Observer details:
291 LPL/Spacewatch II.  Observers R. S. McMillan, M. T. Read.  1.8-m f/2.7
    reflector + CCD.
G96 Mt. Lemmon Survey.  Observers R. E. Hill, A. D. Grauer.  Measurers
    E. C. Beshore, E. J. Christensen, G. J. Garradd, A. R. Gibbs, A. D. Grauer,
    R. E. Hill, R. A. Kowalski, S. M. Larson, R. H. McNaught.  1.5-m reflector
    + CCD.

Orbital elements:
2007 BX48                                                Earth MOID = 0.1417 AU
Epoch 2007 Apr. 10.0 TT = JDT 2454200.5                 MPC
M 205.37340              (2000.0)            P               Q
n   0.60183996     Peri.    9.02945     +0.66560845     +0.71223272
a   1.3893619      Node   303.06436     -0.70025093     +0.49273012
e   0.3747447      Incl.   15.42560     -0.25809693     +0.49994158
P   1.64           H   20.0           G   0.15           U   9
Residuals in seconds of arc
070124 G96  0.5-  0.2-    070124 G96  0.3+  0.4-    070128 G96  0.5+  0.2+
070124 G96  0.2+  0.1-    070126 291  0.4+  0.6+    070128 G96  0.1+  0.2-
070124 G96  0.3+  0.0     070126 291  0.0   0.3+    070128 G96  0.8-  0.1+
070124 G96  0.2-  0.8+    070126 291  0.1-  0.0     070128 G96  0.2+  0.4-
070124 G96  0.0   1.1-    070127 291  0.2-  0.6+    070128 G96  0.1+  0.5-
070124 G96  0.3-  0.2-    070127 291  0.3-  0.7-    070128 G96  0.6+  0.1+
070124 G96  0.2+  0.1-    070127 291  0.1+  0.2-    070128 G96  0.0   0.1-

Ephemeris:
2007 BX48                a,e,i = 1.39, 0.37, 15                  q = 0.8687
Date    TT    R. A. (2000) Decl.     Delta      r     Elong.  Phase     V
2007 01 20    08 20.38   +20 48.2    0.905    1.888   176.7     1.7    21.4
2007 01 25    08 09.22   +20 32.2    0.911    1.894   175.5     2.3    21.4
2007 01 30    07 58.46   +20 13.3    0.924    1.898   168.0     6.2    21.7
2007 02 04    07 48.47   +19 52.0    0.944    1.902   160.7     9.9    21.9
2007 02 09    07 39.55   +19 29.0    0.970    1.905   153.6    13.3    22.1
2007 02 14    07 31.88   +19 05.1    1.003    1.908   146.8    16.5    22.3
2007 02 19    07 25.60   +18 40.8    1.041    1.909   140.3    19.3    22.5
2007 02 24    07 20.74   +18 16.7    1.084    1.910   134.2    21.8    22.6
2007 03 01    07 17.29   +17 53.1    1.130    1.910   128.4    24.0    22.8

Gareth V. Williams           (C) Copyright 2007 MPC           M.P.E.C. 2007-B62

Read MPEC 2007-B61 Read MPEC 2007-B63


Our Web policy. Index to the CBAT/MPC/ICQ pages.


Valid HTML 4.01!